Location: Cactus School
(34.5700°N, 118.0931°W)
Time: 04:30:20
(UTC-07:00)

Transit 4A - Pass Details

Date: 22 April 2024
Orbit: 871 x 971 km, 66.8° (Epoch: 20 May)

Event Time Altitude Azimuth Distance (km) Brightness Sun altitude
Rises 00:09:30 0° 307° (NW) 3,469 11.4 -42.0°
Enters shadow 00:12:24 - 289° (WNW) 2,777 10.7 -42.2°
Reaches altitude 10° 00:14:03 10° 274° (W) 2,539 - -42.2°
Maximum altitude 00:15:41 11° 258° (WSW) 2,458 - -42.3°
Drops below altitude 10° 00:17:19 10° 241° (WSW) 2,549 - -42.4°
Sets 00:21:57 0° 209° (SSW) 3,507 - -42.5°
